SCP
-0 -0 -0 -1 -1 -1 -1 -1 -1 -0 -0 -0 -1 -1 -0 -0 -0 -0 -0 -0 -0 0 0 0 0 0 0 0 0 0 -0 -0 -0 -0 -0 -0 0 0 0 0 0 0 0
-0 -0 -0 -0 -1 -1 -1 -1 -1 -0 -0 -0 -0 -0 -0 -0 -0 -0 -0 -0 0 0 0 0 -0 -0 0 0 0 0 0 -0 -0 -0 -0 0 0 0 0 0 0 0 0
-0 0 -0 -0 -1 -1 -1 -1 -0 -0 -0 -0 -0 -0 -0 -0 -0 -0 -0 0 0 0 0 0 0 0 0 0 0 0 0 -0 0 0 -0 0 0 0 0 0 0 0 0
0 -0 -0 -0 -1 -1 -1 -0 -0 -0 -0 -0 -0 -0 -0 -0 -0 -0 0 -0 0 0 0 0 0 0 0 0 0 0 0 0 -0 0 0 0 0 0 0 -0 0 0 0
0 0 -0 -0 -0 -1 -1 -0 -0 -0 -0 -0 -0 -0 -0 -0 -0 0 0 0 0 0 0 0 0 0 -0 -0 -0 -0 -0 -0 -0 -0 0 0 0 0 0 0 0 0 0
1 1 0 -0 -0 -0 -1 -0 -0 -0 -0 -0 -0 -0 -0 0 0 0 0 0 -0 -0 -0 -0 -0 -0 -0 -0 -0 -0 -0 -0 -0 -0 -0 0 0 0 -0 0 0 0 0
1 1 1 0 0 -0 -0 -0 -0 -0 -0 -0 -0 -0 0 0 0 -0 -0 -0 -0 -0 -0 -0 -0 -0 -0 -0 -0 -0 -0 -0 -0 -0 -0 0 0 -0 0 0 0 0 0
2 1 1 1 0 0 0 0 0 0 0 0 0 -0 0 -0 -0 -0 -0 -0 -0 -0 -0 -0 -0 -0 -0 -0 -0 -0 -0 -0 -0 -0 -0 0 0 0 0 0 0 0 0
1 1 1 1 1 1 0 0 0 0 0 0 0 0 0 0 -0 -0 -0 -0 -0 -0 -0 -0 -0 -0 -0 -0 -0 -0 -0 -0 -0 -0 -0 -0 0 -0 0 0 0 0 0
0 0 1 1 1 1 1 1 1 1 0 0 0 0 0 0 0 0 -0 -0 0 0 0 -0 -0 -0 -0 -0 -0 -0 -0 -0 -0 -0 -0 -0 0 -0 0 0 0 0 0
0 0 0 1 1 2 1 1 1 1 1 1 1 0 0 0 0 0 0 0 0 0 0 0 0 0 0 -0 -0 -0 -0 -0 -0 -0 -0 0 0 -0 -0 0 0 0 0
1 0 0 1 1 1 2 2 1 1 1 1 1 1 1 0 0 0 0 0 0 0 0 0 0 0 0 0 -0 -0 0 0 0 -0 -0 0 0 -0 0 0 0 0 0
1 1 0 1 1 1 1 2 2 2 1 1 1 1 1 0 0 0 0 0 0 0 0 0 0 0 0 0 0 -0 0 0 0 0 0 0 0 0 0 0 0 0 0
1 1 1 1 1 1 1 2 2 2 2 2 1 1 1 1 0 0 0 0 0 0 0 0 0 0 0 0 0 0 0 0 0 0 0 0 0 0 0 0 0 0 0
0 1 1 1 1 0 1 3 3 2 2 2 2 1 1 1 0 1 0 0 0 0 0 0 0 0 0 0 0 0 0 0 0 0 0 0 0 0 0 0 0 0 0
-0 0 1 1 1 1 1 1 1 1 1 1 2 2 1 1 1 1 0 0 0 0 0 0 0 0 0 0 0 0 0 0 0 0 0 0 0 0 0 0 1 1 1
-0 -0 -0 0 0 0 0 1 1 1 1 1 2 1 2 2 1 1 1 0 0 0 0 0 0 0 0 0 0 0 0 0 0 0 0 0 0 0 0 1 1 1 1
0 -0 -0 0 0 0 0 2 2 1 1 1 1 2 2 2 2 1 1 1 1 0 0 0 0 0 0 0 0 0 0 0 0 0 0 1 0 0 0 0 1 1 1
0 0 -0 -0 -0 -0 1 2 3 3 2 1 1 1 2 2 2 2 1 2 1 1 0 0 0 0 0 0 0 0 0 0 0 0 0 0 0 0 0 0 1 1 1
0 0 0 0 0 0 0 0 2 2 3 2 2 1 1 1 2 2 2 1 1 1 1 0 0 0 0 0 0 0 0 0 1 1 0 1 0 0 1 1 1 1 1
0 0 0 0 0 0 0 0 1 2 2 2 1 1 1 1 1 2 2 2 2 2 1 1 1 1 0 0 0 0 0 0 0 0 1 1 1 1 1 1 1 1 1
0 0 0 0 0 0 0 0 0 0 0 1 2 2 2 1 1 1 2 2 2 2 1 1 1 1 1 0 1 0 0 0 0 1 1 1 1 1 1 1 1 1 1
0 0 0 0 0 0 0 0 0 0 0 0 0 1 1 1 2 1 2 2 2 3 3 2 2 1 1 1 1 1 1 0 0 1 2 2 2 2 1 1 1 2 1
0 0 0 0 0 0 0 0 0 0 0 0 0 0 0 0 0 1 2 2 2 3 3 3 2 2 1 1 1 1 0 0 1 1 3 2 2 1 1 1 1 1 1
0 0 0 0 0 0 0 0 0 0 0 0 0 0 0 0 0 0 1 2 2 2 2 2 3 2 2 2 1 1 1 2 2 1 2 3 2 2 2 1 1 1 1
0 0 0 0 0 0 0 0 0 0 0 0 0 0 -0 -0 0 0 1 1 2 2 2 2 3 2 2 2 1 1 1 1 2 2 1 2 2 1 1 1 1 0 0
Wind_Speed_500mb
57 56 53 50 48 46 43 40 40 42 40 39 38 36 32 28 31 36 40 39 35 32 30 28 24 22 22 24 24 24 28 31 34 34 32 32 31 29 26 23 20 17 17
58 56 54 51 49 45 41 39 40 40 39 37 35 33 29 29 36 40 41 39 36 33 29 26 25 26 27 26 24 24 25 29 26 24 25 27 30 30 28 22 17 16 15
61 57 54 52 50 47 42 41 41 41 38 34 32 30 29 36 40 42 42 39 36 31 27 26 26 27 25 24 23 30 29 25 22 23 21 22 24 27 24 21 18 13 14
54 54 54 55 51 48 43 41 42 41 37 33 31 30 32 37 41 41 40 37 34 29 26 24 24 24 22 22 23 27 23 23 20 18 20 19 16 19 20 18 16 15 13
52 52 54 55 52 49 44 43 42 40 36 32 30 30 34 38 41 41 39 34 30 26 24 22 21 20 20 21 23 24 23 20 16 11 14 20 19 14 19 16 13 11 11
51 49 53 55 52 49 44 44 41 40 36 32 30 30 33 37 39 38 36 32 28 25 23 22 20 19 19 20 22 22 22 17 13 7 8 15 16 17 16 13 12 10 9
46 47 51 52 51 49 45 43 41 38 35 31 28 28 31 35 36 36 34 30 26 24 23 22 21 20 19 19 19 18 16 14 10 4 4 8 10 15 16 15 14 13 10
42 47 49 49 49 47 45 41 40 37 35 33 30 26 28 32 34 35 33 30 27 25 24 23 22 20 18 17 15 14 12 11 16 7 0 4 7 15 19 15 13 12 11
26 37 44 48 49 47 45 42 39 37 35 33 32 30 26 28 31 32 32 30 28 26 25 24 23 21 20 18 15 12 10 10 15 18 7 2 2 9 21 15 13 11 10
25 25 33 43 49 50 48 45 41 40 39 38 36 34 32 29 29 31 32 32 30 29 27 26 24 23 21 18 16 13 12 12 14 18 12 7 1 7 19 17 13 11 8
38 29 31 33 44 47 46 45 43 41 41 42 43 43 42 38 35 34 34 33 33 31 30 28 27 25 23 21 20 18 16 17 20 18 16 11 7 7 17 20 16 13 11
45 41 32 31 38 45 43 43 43 43 45 48 50 51 51 45 41 38 38 38 37 36 35 33 31 30 29 26 25 23 19 19 23 27 20 17 11 8 16 18 18 16 13
42 44 41 36 35 32 38 43 44 47 49 50 53 55 54 53 50 48 44 45 44 43 43 42 40 37 34 32 32 33 30 28 27 29 26 22 14 9 17 19 17 18 15
30 41 49 49 40 36 32 29 32 46 54 52 54 57 60 62 59 57 54 52 51 51 49 49 47 43 41 40 39 38 39 38 34 30 30 27 22 17 19 21 19 18 16
10 29 47 51 48 38 40 49 47 48 55 52 50 54 61 67 67 65 65 62 61 59 59 57 56 53 51 49 47 46 45 43 39 36 38 34 31 28 28 27 25 23 20
8 16 32 51 56 54 48 49 48 41 45 47 43 43 59 69 72 72 72 73 71 70 66 66 65 62 60 56 55 53 50 47 45 42 45 45 37 34 35 33 31 29 28
17 6 27 36 44 48 46 50 55 48 45 45 47 45 47 63 74 72 75 81 78 77 70 70 71 73 72 68 66 62 58 53 48 44 46 50 50 48 47 41 38 36 34
3 27 29 32 40 44 47 46 55 50 54 53 48 52 52 53 57 62 78 82 82 82 76 75 74 76 77 74 71 67 62 56 51 48 50 57 53 53 53 48 46 43 39
18 8 22 24 19 19 25 41 51 58 56 50 53 61 63 61 58 63 65 70 76 81 84 80 77 74 75 81 79 75 68 62 58 51 44 53 56 51 51 55 56 53 47
22 19 16 19 17 16 15 20 28 45 58 60 60 62 63 64 69 72 74 75 75 80 87 88 85 80 79 83 81 80 76 65 61 56 50 48 51 50 45 48 50 53 47
23 23 20 13 14 11 11 8 13 25 37 53 58 64 70 71 71 75 83 84 87 84 89 92 92 91 87 87 84 82 81 70 68 65 58 57 57 58 51 52 56 53 54
20 17 13 10 9 7 10 13 16 25 29 29 33 43 54 70 77 80 87 91 94 96 97 94 96 98 101 93 90 85 72 81 75 73 64 68 67 62 58 61 60 61 58
21 12 5 2 6 11 12 13 20 28 36 45 48 47 47 54 55 76 85 90 97 105 105 104 100 105 110 105 96 84 42 53 65 81 77 76 74 70 65 66 68 65 56
20 11 4 8 12 16 23 26 29 37 44 49 53 56 62 69 73 71 72 91 95 100 112 116 116 114 109 102 95 105 104 68 44 53 86 78 77 76 75 71 66 62 55
13 7 2 7 16 26 33 39 44 44 47 52 57 67 74 78 81 86 84 78 93 99 108 112 108 118 118 115 106 90 104 112 85 64 61 84 82 82 81 73 63 60 58
6 14 19 24 33 37 39 44 46 51 57 63 64 65 70 74 74 71 79 82 76 92 109 115 120 121 124 123 118 119 98 101 101 82 64 65 70 71 74 68 65 58 62
Wind_Direction_500mb
169 162 159 161 161 158 152 150 149 150 151 150 150 150 149 152 151 146 143 142 142 138 136 137 136 130 123 114 109 106 103 99 95 82 77 67 59 53 49 53 64 72 78
168 165 162 163 162 160 154 151 149 150 150 150 152 153 154 153 150 147 147 147 143 139 135 132 131 128 124 121 120 114 111 106 96 86 79 68 60 50 43 42 51 59 67
167 164 166 163 164 162 158 153 152 152 152 152 154 156 154 150 151 150 150 149 144 140 137 137 136 133 130 130 128 125 119 108 93 80 79 63 50 41 39 34 34 45 55
166 165 169 164 166 164 161 157 155 155 156 157 158 156 152 150 152 152 152 150 146 144 143 141 141 141 136 133 134 138 120 107 92 77 67 53 45 29 29 29 30 39 48
166 166 170 165 168 167 164 162 161 161 162 162 160 158 155 153 154 154 153 151 150 150 146 144 146 146 143 139 138 142 135 121 105 88 70 51 29 12 12 15 17 26 31
165 167 172 167 169 170 168 167 167 167 169 169 165 162 161 159 159 159 158 159 159 158 154 154 156 157 157 151 148 147 147 140 142 143 71 56 25 9 1 3 5 5 4
170 170 174 171 171 173 174 173 173 174 175 175 174 169 169 168 167 168 169 171 171 168 166 166 169 172 171 167 164 161 165 166 164 156 77 60 12 351 350 351 357 356 342
176 172 175 174 176 178 179 179 180 181 184 185 183 183 179 179 179 180 182 184 183 180 179 179 183 186 185 186 183 176 177 184 182 201 61 33 35 349 343 340 335 346 345
161 178 177 180 181 184 186 187 187 189 192 196 197 194 196 194 192 191 192 194 194 193 193 193 193 195 197 201 203 198 191 193 209 216 219 189 59 340 339 333 315 323 339
154 160 178 188 189 190 191 192 195 197 200 202 205 206 205 204 207 205 202 202 203 204 204 205 205 205 206 209 211 209 203 197 203 211 212 216 285 335 326 314 295 299 311
174 174 172 183 196 197 197 199 202 205 208 210 210 210 212 212 210 211 214 213 211 213 216 217 215 213 213 214 216 210 206 206 198 207 217 235 249 309 316 304 293 281 287
188 188 191 188 195 199 203 206 209 213 214 216 217 216 216 217 218 219 218 218 220 219 220 224 225 221 219 217 220 215 214 213 212 212 228 228 240 287 300 293 287 281 279
214 205 201 198 191 187 210 212 214 218 220 222 222 223 222 221 221 224 223 223 222 223 224 225 225 226 226 222 221 220 224 223 208 213 224 224 226 260 288 285 280 282 283
213 225 215 205 196 192 188 207 222 229 223 220 226 227 225 225 228 229 230 230 228 227 228 230 230 229 227 226 226 229 230 233 225 215 212 214 222 236 264 270 267 266 273
204 219 232 217 198 203 252 235 234 225 227 228 228 233 234 233 231 234 236 235 234 231 231 232 232 231 229 228 228 231 231 234 231 223 220 223 233 232 247 250 251 249 255
297 209 212 226 216 236 238 253 233 225 228 230 233 239 247 244 241 239 240 240 239 235 232 233 233 234 234 231 232 233 234 234 237 236 231 231 231 229 237 243 245 248 254
296 200 190 202 227 231 242 255 236 240 236 242 249 251 259 252 248 249 249 250 248 243 238 235 236 236 236 235 235 234 233 233 233 235 234 234 233 236 238 238 238 239 245
75 133 154 188 212 227 246 259 241 243 250 252 254 257 259 261 256 257 253 254 253 250 250 246 243 242 241 239 239 238 237 233 234 233 231 234 234 236 241 243 245 245 246
245 197 144 157 175 210 235 239 248 250 252 263 258 256 262 259 259 260 260 258 259 253 252 251 249 248 245 242 240 242 240 241 238 239 241 239 242 245 251 253 252 250 250
213 195 188 187 187 198 228 256 263 255 252 261 266 270 268 265 269 264 262 259 256 256 251 247 249 248 250 247 245 243 242 243 240 239 237 243 242 245 253 256 253 253 256
198 195 195 154 142 130 140 187 245 261 260 263 264 266 268 271 270 270 266 260 258 255 254 250 250 248 248 248 251 252 251 247 247 244 241 242 243 245 253 261 264 264 270
157 172 187 192 173 180 233 262 268 274 280 282 277 278 279 270 271 272 272 270 262 258 254 252 247 248 249 246 245 246 249 248 245 234 233 239 245 248 252 256 260 267 263
131 127 126 193 264 287 317 299 288 284 282 284 286 286 285 281 281 276 272 270 270 267 259 255 252 245 247 244 240 234 235 241 248 237 233 233 238 245 250 253 264 263 256
109 100 22 318 309 309 305 312 315 308 306 303 298 294 290 284 281 278 281 272 269 266 265 259 257 252 245 239 241 237 237 246 236 233 235 235 235 237 244 253 261 257 251
129 148 117 345 326 314 309 309 309 305 303 301 299 298 300 300 295 284 275 275 272 265 264 262 256 258 256 248 235 238 239 239 239 244 229 228 231 236 243 249 252 248 253
345 321 316 316 317 309 307 309 305 302 302 302 304 304 304 304 303 291 284 279 277 273 266 265 265 261 260 255 247 239 234 235 229 233 230 227 230 235 241 241 243 245 250
Wind_Speed_850mb
57 56 53 50 48 46 43 40 40 42 40 39 38 36 32 28 31 36 40 39 35 32 30 28 24 22 22 24 24 24 28 31 34 34 32 32 31 29 26 23 20 17 17
58 56 54 51 49 45 41 39 40 40 39 37 35 33 29 29 36 40 41 39 36 33 29 26 25 26 27 26 24 24 25 29 26 24 25 27 30 30 28 22 17 16 15
61 57 54 52 50 47 42 41 41 41 38 34 32 30 29 36 40 42 42 39 36 31 27 26 26 27 25 24 23 30 29 25 22 23 21 22 24 27 24 21 18 13 14
54 54 54 55 51 48 43 41 42 41 37 33 31 30 32 37 41 41 40 37 34 29 26 24 24 24 22 22 23 27 23 23 20 18 20 19 16 19 20 18 16 15 13
52 52 54 55 52 49 44 43 42 40 36 32 30 30 34 38 41 41 39 34 30 26 24 22 21 20 20 21 23 24 23 20 16 11 14 20 19 14 19 16 13 11 11
51 49 53 55 52 49 44 44 41 40 36 32 30 30 33 37 39 38 36 32 28 25 23 22 20 19 19 20 22 22 22 17 13 7 8 15 16 17 16 13 12 10 9
46 47 51 52 51 49 45 43 41 38 35 31 28 28 31 35 36 36 34 30 26 24 23 22 21 20 19 19 19 18 16 14 10 4 4 8 10 15 16 15 14 13 10
42 47 49 49 49 47 45 41 40 37 35 33 30 26 28 32 34 35 33 30 27 25 24 23 22 20 18 17 15 14 12 11 16 7 0 4 7 15 19 15 13 12 11
26 37 44 48 49 47 45 42 39 37 35 33 32 30 26 28 31 32 32 30 28 26 25 24 23 21 20 18 15 12 10 10 15 18 7 2 2 9 21 15 13 11 10
25 25 33 43 49 50 48 45 41 40 39 38 36 34 32 29 29 31 32 32 30 29 27 26 24 23 21 18 16 13 12 12 14 18 12 7 1 7 19 17 13 11 8
38 29 31 33 44 47 46 45 43 41 41 42 43 43 42 38 35 34 34 33 33 31 30 28 27 25 23 21 20 18 16 17 20 18 16 11 7 7 17 20 16 13 11
45 41 32 31 38 45 43 43 43 43 45 48 50 51 51 45 41 38 38 38 37 36 35 33 31 30 29 26 25 23 19 19 23 27 20 17 11 8 16 18 18 16 13
42 44 41 36 35 32 38 43 44 47 49 50 53 55 54 53 50 48 44 45 44 43 43 42 40 37 34 32 32 33 30 28 27 29 26 22 14 9 17 19 17 18 15
30 41 49 49 40 36 32 29 32 46 54 52 54 57 60 62 59 57 54 52 51 51 49 49 47 43 41 40 39 38 39 38 34 30 30 27 22 17 19 21 19 18 16
10 29 47 51 48 38 40 49 47 48 55 52 50 54 61 67 67 65 65 62 61 59 59 57 56 53 51 49 47 46 45 43 39 36 38 34 31 28 28 27 25 23 20
8 16 32 51 56 54 48 49 48 41 45 47 43 43 59 69 72 72 72 73 71 70 66 66 65 62 60 56 55 53 50 47 45 42 45 45 37 34 35 33 31 29 28
17 6 27 36 44 48 46 50 55 48 45 45 47 45 47 63 74 72 75 81 78 77 70 70 71 73 72 68 66 62 58 53 48 44 46 50 50 48 47 41 38 36 34
3 27 29 32 40 44 47 46 55 50 54 53 48 52 52 53 57 62 78 82 82 82 76 75 74 76 77 74 71 67 62 56 51 48 50 57 53 53 53 48 46 43 39
18 8 22 24 19 19 25 41 51 58 56 50 53 61 63 61 58 63 65 70 76 81 84 80 77 74 75 81 79 75 68 62 58 51 44 53 56 51 51 55 56 53 47
22 19 16 19 17 16 15 20 28 45 58 60 60 62 63 64 69 72 74 75 75 80 87 88 85 80 79 83 81 80 76 65 61 56 50 48 51 50 45 48 50 53 47
23 23 20 13 14 11 11 8 13 25 37 53 58 64 70 71 71 75 83 84 87 84 89 92 92 91 87 87 84 82 81 70 68 65 58 57 57 58 51 52 56 53 54
20 17 13 10 9 7 10 13 16 25 29 29 33 43 54 70 77 80 87 91 94 96 97 94 96 98 101 93 90 85 72 81 75 73 64 68 67 62 58 61 60 61 58
21 12 5 2 6 11 12 13 20 28 36 45 48 47 47 54 55 76 85 90 97 105 105 104 100 105 110 105 96 84 42 53 65 81 77 76 74 70 65 66 68 65 56
20 11 4 8 12 16 23 26 29 37 44 49 53 56 62 69 73 71 72 91 95 100 112 116 116 114 109 102 95 105 104 68 44 53 86 78 77 76 75 71 66 62 55
13 7 2 7 16 26 33 39 44 44 47 52 57 67 74 78 81 86 84 78 93 99 108 112 108 118 118 115 106 90 104 112 85 64 61 84 82 82 81 73 63 60 58
6 14 19 24 33 37 39 44 46 51 57 63 64 65 70 74 74 71 79 82 76 92 109 115 120 121 124 123 118 119 98 101 101 82 64 65 70 71 74 68 65 58 62
Wind_Direction_850mb
169 162 159 161 161 158 152 150 149 150 151 150 150 150 149 152 151 146 143 142 142 138 136 137 136 130 123 114 109 106 103 99 95 82 77 67 59 53 49 53 64 72 78
168 165 162 163 162 160 154 151 149 150 150 150 152 153 154 153 150 147 147 147 143 139 135 132 131 128 124 121 120 114 111 106 96 86 79 68 60 50 43 42 51 59 67
167 164 166 163 164 162 158 153 152 152 152 152 154 156 154 150 151 150 150 149 144 140 137 137 136 133 130 130 128 125 119 108 93 80 79 63 50 41 39 34 34 45 55
166 165 169 164 166 164 161 157 155 155 156 157 158 156 152 150 152 152 152 150 146 144 143 141 141 141 136 133 134 138 120 107 92 77 67 53 45 29 29 29 30 39 48
166 166 170 165 168 167 164 162 161 161 162 162 160 158 155 153 154 154 153 151 150 150 146 144 146 146 143 139 138 142 135 121 105 88 70 51 29 12 12 15 17 26 31
165 167 172 167 169 170 168 167 167 167 169 169 165 162 161 159 159 159 158 159 159 158 154 154 156 157 157 151 148 147 147 140 142 143 71 56 25 9 1 3 5 5 4
170 170 174 171 171 173 174 173 173 174 175 175 174 169 169 168 167 168 169 171 171 168 166 166 169 172 171 167 164 161 165 166 164 156 77 60 12 351 350 351 357 356 342
176 172 175 174 176 178 179 179 180 181 184 185 183 183 179 179 179 180 182 184 183 180 179 179 183 186 185 186 183 176 177 184 182 201 61 33 35 349 343 340 335 346 345
161 178 177 180 181 184 186 187 187 189 192 196 197 194 196 194 192 191 192 194 194 193 193 193 193 195 197 201 203 198 191 193 209 216 219 189 59 340 339 333 315 323 339
154 160 178 188 189 190 191 192 195 197 200 202 205 206 205 204 207 205 202 202 203 204 204 205 205 205 206 209 211 209 203 197 203 211 212 216 285 335 326 314 295 299 311
174 174 172 183 196 197 197 199 202 205 208 210 210 210 212 212 210 211 214 213 211 213 216 217 215 213 213 214 216 210 206 206 198 207 217 235 249 309 316 304 293 281 287
188 188 191 188 195 199 203 206 209 213 214 216 217 216 216 217 218 219 218 218 220 219 220 224 225 221 219 217 220 215 214 213 212 212 228 228 240 287 300 293 287 281 279
214 205 201 198 191 187 210 212 214 218 220 222 222 223 222 221 221 224 223 223 222 223 224 225 225 226 226 222 221 220 224 223 208 213 224 224 226 260 288 285 280 282 283
213 225 215 205 196 192 188 207 222 229 223 220 226 227 225 225 228 229 230 230 228 227 228 230 230 229 227 226 226 229 230 233 225 215 212 214 222 236 264 270 267 266 273
204 219 232 217 198 203 252 235 234 225 227 228 228 233 234 233 231 234 236 235 234 231 231 232 232 231 229 228 228 231 231 234 231 223 220 223 233 232 247 250 251 249 255
297 209 212 226 216 236 238 253 233 225 228 230 233 239 247 244 241 239 240 240 239 235 232 233 233 234 234 231 232 233 234 234 237 236 231 231 231 229 237 243 245 248 254
296 200 190 202 227 231 242 255 236 240 236 242 249 251 259 252 248 249 249 250 248 243 238 235 236 236 236 235 235 234 233 233 233 235 234 234 233 236 238 238 238 239 245
75 133 154 188 212 227 246 259 241 243 250 252 254 257 259 261 256 257 253 254 253 250 250 246 243 242 241 239 239 238 237 233 234 233 231 234 234 236 241 243 245 245 246
245 197 144 157 175 210 235 239 248 250 252 263 258 256 262 259 259 260 260 258 259 253 252 251 249 248 245 242 240 242 240 241 238 239 241 239 242 245 251 253 252 250 250
213 195 188 187 187 198 228 256 263 255 252 261 266 270 268 265 269 264 262 259 256 256 251 247 249 248 250 247 245 243 242 243 240 239 237 243 242 245 253 256 253 253 256
198 195 195 154 142 130 140 187 245 261 260 263 264 266 268 271 270 270 266 260 258 255 254 250 250 248 248 248 251 252 251 247 247 244 241 242 243 245 253 261 264 264 270
157 172 187 192 173 180 233 262 268 274 280 282 277 278 279 270 271 272 272 270 262 258 254 252 247 248 249 246 245 246 249 248 245 234 233 239 245 248 252 256 260 267 263
131 127 126 193 264 287 317 299 288 284 282 284 286 286 285 281 281 276 272 270 270 267 259 255 252 245 247 244 240 234 235 241 248 237 233 233 238 245 250 253 264 263 256
109 100 22 318 309 309 305 312 315 308 306 303 298 294 290 284 281 278 281 272 269 266 265 259 257 252 245 239 241 237 237 246 236 233 235 235 235 237 244 253 261 257 251
129 148 117 345 326 314 309 309 309 305 303 301 299 298 300 300 295 284 275 275 272 265 264 262 256 258 256 248 235 238 239 239 239 244 229 228 231 236 243 249 252 248 253
345 321 316 316 317 309 307 309 305 302 302 302 304 304 304 304 303 291 284 279 277 273 266 265 265 261 260 255 247 239 234 235 229 233 230 227 230 235 241 241 243 245 250